Date String (YYYY-MM-DD hh:mm:ss) UTC,Instrument flags,Ambient pressure (hPa),Sample flow (lpm),Bypass flow (lpm),Sample temperature (°C),Ambient temperature (°C),ASC tube jacket temperature (°C),LED temperature (°C),Box temperature (°C),Sample RH (%),Span deviation,Mass concentration (μg/m³),Mass concentration (μg/m³),Mass concentration (μg/m³)
DateTimeUTC,F1_M11,P_M11,Q1_M11,Q2_M11,T1_M11,T2_M11,T3_M11,T4_M11,T5_M11,U1_M11,ZSPAN_M11,X0_M11,X2_M11,X1_M11
2022-09-10 04:00:00,,0829.8,5.01,0.00,29.9,28.3,00.0,38.7,31.7,28.2,0000.0,0008.79,0006.83,0006.63
2022-09-10 04:01:00,,0829.7,5.01,0.00,29.9,28.3,00.0,38.7,31.7,28.2,0000.0,0008.64,0006.73,0006.54
2022-09-10 04:02:00,,0829.6,4.99,0.00,29.9,28.3,00.0,38.7,31.7,28.1,0000.0,0008.56,0006.66,0006.47
2022-09-10 04:03:00,,0829.7,5.00,0.00,29.9,28.3,00.0,38.7,31.7,28.1,0000.0,0008.46,0006.58,0006.42
2022-09-10 04:04:00,,0829.6,5.00,0.00,29.9,28.3,00.0,38.7,31.7,28.1,0000.0,0008.39,0006.51,0006.37
2022-09-10 04:05:00,,0829.6,5.01,0.00,29.9,28.3,00.0,38.7,31.7,28.1,0000.0,0008.39,0006.47,0006.32
2022-09-10 04:06:00,,0829.6,4.99,0.00,29.9,28.3,00.0,38.7,31.7,28.0,0000.0,0008.38,0006.43,0006.28
2022-09-10 04:07:00,,0829.7,5.01,0.00,29.9,28.2,00.0,38.6,31.7,28.0,0000.0,0008.36,0006.42,0006.27
2022-09-10 04:08:00,,0829.6,5.01,0.00,29.9,28.2,00.0,38.6,31.6,28.0,0000.0,0008.36,0006.42,0006.27
2022-09-10 04:09:00,,0829.6,5.00,0.00,29.9,28.2,00.0,38.6,31.6,28.0,0000.0,0008.41,0006.43,0006.27
2022-09-10 04:10:00,,0829.6,5.00,0.00,29.8,28.2,00.0,38.6,31.6,28.0,0000.0,0008.50,0006.45,0006.26
2022-09-10 04:11:00,,0829.7,4.99,0.00,29.8,28.1,00.0,38.6,31.6,28.1,0000.0,0008.50,0006.45,0006.27
2022-09-10 04:12:00,,0829.8,4.99,0.00,29.8,28.2,00.0,38.6,31.6,28.1,0000.0,0008.54,0006.47,0006.29
2022-09-10 04:13:00,,0829.6,5.00,0.00,29.8,28.2,00.0,38.6,31.6,28.1,0000.0,0008.57,0006.46,0006.26
2022-09-10 04:14:00,,0829.6,5.01,0.00,29.8,28.1,00.0,38.6,31.6,28.1,0000.0,0008.51,0006.36,0006.14
2022-09-10 04:15:00,,0829.7,5.01,0.00,29.8,28.1,00.0,38.6,31.5,27.9,0000.0,0008.31,0006.15,0005.94
2022-09-10 04:16:00,,0829.6,5.00,0.00,29.8,28.0,00.0,38.6,31.5,27.9,0000.0,0007.99,0005.87,0005.69
2022-09-10 04:17:00,,0829.6,5.00,0.00,29.8,27.9,00.0,38.6,31.5,27.9,0000.0,0007.67,0005.58,0005.43
2022-09-10 04:18:00,,0829.6,5.00,0.00,29.7,27.9,00.0,38.6,31.5,27.8,0000.0,0007.32,0005.26,0005.13
2022-09-10 04:19:00,,0829.6,4.99,0.00,29.7,27.8,00.0,38.5,31.5,27.7,0000.0,0006.76,0004.94,0004.82
2022-09-10 04:20:00,,0829.7,5.00,0.00,29.7,27.8,00.0,38.5,31.4,27.7,0000.0,0006.14,0004.62,0004.52
2022-09-10 04:21:00,,0829.6,4.99,0.00,29.7,27.8,00.0,38.5,31.4,27.8,0000.0,0005.45,0004.30,0004.23
2022-09-10 04:22:00,,0829.7,4.99,0.00,29.7,27.9,00.0,38.5,31.4,27.8,0000.0,0004.92,0004.01,0003.94
2022-09-10 04:23:00,,0829.8,5.01,0.00,29.7,27.9,00.0,38.5,31.4,27.8,0000.0,0004.34,0003.71,0003.65
2022-09-10 04:24:00,,0829.7,5.00,0.00,29.7,27.9,00.0,38.5,31.4,27.9,0000.0,0003.75,0003.41,0003.36
2022-09-10 04:25:00,,0829.6,5.00,0.00,29.7,27.9,00.0,38.5,31.4,27.9,0000.0,0003.29,0003.18,0003.15
2022-09-10 04:26:00,,0829.6,4.99,0.00,29.7,28.0,00.0,38.5,31.4,27.9,0000.0,0003.03,0003.00,0002.95
2022-09-10 04:27:00,,0829.7,5.00,0.00,29.7,28.0,00.0,38.5,31.4,28.0,0000.0,0002.88,0002.84,0002.80
2022-09-10 04:28:00,,0829.9,5.01,0.00,29.7,28.0,00.0,38.5,31.4,28.0,0000.0,0002.75,0002.72,0002.68
2022-09-10 04:29:00,,0830.0,5.00,0.00,29.7,28.1,00.0,38.5,31.5,28.3,0000.0,0002.64,0002.61,0002.59
2022-09-10 04:30:00,,0829.6,5.01,0.00,29.7,28.1,00.0,38.5,31.5,28.9,0000.0,0002.58,0002.55,0002.51
2022-09-10 04:31:00,,0829.6,5.00,0.00,29.7,28.2,00.0,38.5,31.5,28.3,0000.0,0003.54,0002.47,0002.44
2022-09-10 04:32:00,,0829.6,5.00,0.00,29.7,28.1,00.0,38.5,31.5,28.0,0000.0,0003.67,0002.40,0002.38
2022-09-10 04:33:00,,0829.6,5.00,0.00,29.7,28.1,00.0,38.5,31.5,27.9,0000.0,0003.67,0002.38,0002.35
2022-09-10 04:34:00,,0829.6,4.98,0.00,29.7,28.1,00.0,38.5,31.5,27.9,0000.0,0003.66,0002.36,0002.32
2022-09-10 04:35:00,,0829.7,5.01,0.00,29.7,28.1,00.0,38.5,31.5,27.9,0000.0,0003.69,0002.38,0002.34
2022-09-10 04:36:00,,0829.7,5.01,0.00,29.7,28.1,00.0,38.5,31.5,27.8,0000.0,0003.71,0002.40,0002.36
2022-09-10 04:37:00,,0829.6,5.01,0.00,29.7,28.1,00.0,38.5,31.5,27.8,0000.0,0003.76,0002.46,0002.42
2022-09-10 04:38:00,,0829.7,4.99,0.00,29.7,28.1,00.0,38.5,31.5,27.8,0000.0,0003.81,0002.51,0002.47
2022-09-10 04:39:00,,0829.7,5.00,0.00,29.7,28.2,00.0,38.5,31.5,27.8,0000.0,0003.85,0002.55,0002.50
2022-09-10 04:40:00,,0829.7,5.01,0.00,29.7,28.2,00.0,38.5,31.5,27.8,0000.0,0003.89,0002.58,0002.53
2022-09-10 04:41:00,,0829.8,5.00,0.00,29.7,28.1,00.0,38.5,31.5,27.8,0000.0,0003.89,0002.59,0002.55
2022-09-10 04:42:00,,0829.8,5.00,0.00,29.7,28.2,00.0,38.5,31.5,27.9,0000.0,0003.00,0002.58,0002.55
2022-09-10 04:43:00,,0829.8,5.01,0.00,29.7,28.2,00.0,38.5,31.5,27.8,0000.0,0002.63,0002.58,0002.54
2022-09-10 04:44:00,,0829.8,4.99,0.00,29.7,28.2,00.0,38.5,31.5,27.8,0000.0,0002.65,0002.57,0002.52
2022-09-10 04:45:00,,0829.8,5.00,0.00,29.7,28.2,00.0,38.5,31.5,27.7,0000.0,0002.62,0002.53,0002.48
2022-09-10 04:46:00,,0829.8,5.00,0.00,29.7,28.2,00.0,38.5,31.5,27.5,0000.0,0002.56,0002.48,0002.43
2022-09-10 04:47:00,,0829.8,5.00,0.00,29.7,28.2,00.0,38.5,31.5,27.3,0000.0,0002.53,0002.46,0002.41
2022-09-10 04:48:00,,0829.8,4.98,0.00,29.7,28.1,00.0,38.4,31.5,27.2,0000.0,0002.54,0002.46,0002.40
2022-09-10 04:49:00,,0829.8,5.00,0.00,29.7,28.0,00.0,38.4,31.4,27.1,0000.0,0002.55,0002.45,0002.39
2022-09-10 04:50:00,,0829.8,5.00,0.00,29.7,28.0,00.0,38.4,31.4,27.1,0000.0,0002.55,0002.44,0002.38
2022-09-10 04:51:00,,0829.8,5.01,0.00,29.7,28.1,00.0,38.4,31.4,27.1,0000.0,0002.54,0002.43,0002.36
2022-09-10 04:52:00,,0829.8,4.99,0.00,29.7,28.1,00.0,38.4,31.4,27.0,0000.0,0002.57,0002.43,0002.35
2022-09-10 04:53:00,,0829.8,5.00,0.00,29.7,28.0,00.0,38.4,31.4,27.0,0000.0,0002.57,0002.44,0002.36
2022-09-10 04:54:00,,0829.8,5.00,0.00,29.7,28.0,00.0,38.4,31.4,27.0,0000.0,0002.55,0002.43,0002.35
2022-09-10 04:55:00,,0829.8,5.00,0.00,29.7,28.0,00.0,38.4,31.4,26.9,0000.0,0002.48,0002.40,0002.35
2022-09-10 04:56:00,,0829.8,5.01,0.00,29.6,27.9,00.0,38.4,31.4,26.8,0000.0,0002.46,0002.42,0002.38
2022-09-10 04:57:00,,0829.8,5.00,0.00,29.6,27.8,00.0,38.4,31.4,26.8,0000.0,0002.48,0002.44,0002.40
2022-09-10 04:58:00,,0829.9,5.00,0.00,29.6,27.7,00.0,38.4,31.4,26.8,0000.0,0002.53,0002.45,0002.40
2022-09-10 04:59:00,,0829.8,5.00,0.00,29.6,27.8,00.0,38.4,31.3,26.8,0000.0,0002.52,0002.44,0002.39
